Temp
23 22 22 23 24 25 25 25 25 28 30 30 30 30 31 31 31 31 33 34 34 34 35 36 35 33 32 31 29 28 28 28 27 28 28 29 28 28 27 27 26 25 23 22
22 21 23 23 23 23 23 23 24 26 28 29 30 30 32 32 32 31 32 33 33 34 34 35 34 33 31 30 29 28 28 28 27 27 27 29 30 29 27 27 25 24 23 22
21 22 23 23 23 22 23 22 23 24 26 27 28 28 30 32 32 32 32 33 33 33 33 34 33 33 31 30 29 29 28 27 27 27 28 27 27 28 27 26 24 23 23 22
21 22 21 21 21 22 21 23 23 23 23 23 27 25 28 30 31 31 31 32 33 33 33 33 32 32 31 30 30 30 29 28 27 26 27 27 27 28 27 27 25 24 23 21
19 20 21 21 22 23 22 23 23 22 22 23 25 26 28 30 30 31 31 32 33 33 32 33 33 33 32 31 31 30 29 28 27 27 26 27 26 28 27 27 24 24 22 21
20 22 22 22 22 22 22 21 22 22 22 22 23 25 27 29 30 31 32 32 33 33 33 33 33 32 32 32 32 31 29 28 27 26 24 26 26 28 28 27 24 23 21 22
19 21 22 22 21 21 20 20 19 18 20 20 23 25 26 30 31 31 32 32 32 33 32 32 32 33 32 32 31 31 29 27 26 25 24 25 26 27 26 24 25 25 22 22
16 17 19 19 20 20 19 18 17 16 19 20 23 23 26 29 30 30 31 31 31 31 31 32 32 32 33 32 31 30 29 28 26 25 24 24 25 26 25 25 26 26 25 24
15 16 18 19 21 19 20 18 17 17 17 15 19 25 27 29 29 30 30 29 29 29 30 30 31 30 31 31 31 30 29 28 26 25 25 25 24 26 26 25 24 25 25 23
18 16 18 19 20 20 19 21 17 19 17 16 20 22 26 27 28 29 29 29 29 29 30 30 29 28 28 29 30 29 28 27 26 25 25 25 25 25 24 23 25 24 24 23
19 17 18 18 17 17 20 19 19 18 19 17 20 23 27 28 28 29 30 29 28 29 30 30 28 26 26 30 29 28 27 26 26 25 25 25 25 24 23 23 23 23 22 22
18 15 16 18 21 20 19 19 17 17 19 20 19 21 26 29 30 29 28 27 28 28 29 31 28 25 29 29 28 27 27 26 26 25 25 24 24 23 23 23 23 22 22 22
14 15 14 18 16 19 18 19 18 17 15 17 18 20 26 27 27 27 27 27 27 27 28 30 28 25 28 29 28 27 27 27 26 25 24 24 23 23 23 23 22 22 22 22
15 15 14 15 17 11 12 16 19 18 13 19 21 19 23 26 27 27 27 27 26 27 28 29 29 26 26 29 28 28 27 26 26 25 24 24 23 23 22 22 22 22 22 22
14 13 15 17 18 18 19 19 20 20 20 19 21 18 17 20 24 26 26 25 26 27 28 28 28 26 26 24 28 28 27 26 26 25 24 23 23 22 22 22 22 22 22 22
15 13 15 16 19 20 19 20 20 20 21 21 21 21 23 23 25 25 25 25 26 26 27 27 28 26 24 23 26 27 27 26 25 25 24 23 23 23 22 21 22 22 22 22
12 13 14 15 18 18 18 20 21 21 21 21 20 22 24 24 24 24 25 25 26 26 26 27 27 26 24 23 24 26 26 26 25 25 24 24 23 22 21 21 21 22 22 21
11 13 14 15 16 13 19 19 19 19 20 17 18 21 22 22 23 24 25 25 26 26 26 26 27 26 24 23 24 26 26 26 25 25 25 24 24 23 22 21 21 21 20 20
11 10 11 12 13 15 16 16 16 15 16 18 18 20 21 22 22 22 24 25 25 25 26 26 26 26 24 23 23 26 26 26 26 25 25 25 25 24 23 22 21 20 19 19
12 9 10 13 12 12 13 13 14 14 14 14 15 15 15 16 15 22 22 24 26 26 25 25 25 25 23 22 24 26 26 26 26 26 26 25 25 24 22 21 20 20 20 19
14 10 10 12 12 14 12 13 14 12 14 13 14 15 15 14 17 19 19 20 23 23 24 24 25 23 24 22 23 26 26 26 26 26 26 25 23 23 22 21 21 20 19 19
12 13 13 13 12 13 14 15 11 14 13 12 12 13 13 15 16 17 18 19 20 22 24 25 26 23 23 22 23 26 26 26 26 26 26 24 22 22 21 20 19 19 19 19
14 14 12 12 14 17 16 15 13 12 10 11 11 13 14 14 14 16 17 19 21 22 24 25 26 22 22 22 24 26 26 26 26 26 25 23 21 21 20 20 19 19 19 19
16 17 14 14 16 16 17 15 13 11 10 11 11 11 12 12 14 16 17 20 22 23 25 25 24 22 21 23 25 26 26 26 26 26 25 23 22 20 20 19 19 20 19 20
16 15 14 15 16 16 16 15 12 10 10 10 11 12 12 12 14 17 19 20 22 24 26 25 23 22 23 23 26 26 26 26 26 25 24 24 21 22 20 19 18 19 18 19
15 15 14 12 15 16 15 12 11 10 10 10 10 11 13 13 14 16 18 20 20 22 22 23 23 23 24 26 26 26 26 26 25 25 24 24 24 24 22 20 17 17 16 16
Height
740 743 740 732 724 716 716 716 706 685 675 684 676 673 665 669 677 676 668 667 666 667 668 668 673 680 688 693 696 698 700 699 702 702 702 702 703 705 706 709 710 713 717 721
742 737 729 726 725 727 722 722 710 697 684 682 672 666 651 656 661 668 667 658 661 662 663 665 670 677 684 687 689 692 694 694 697 696 697 697 697 698 702 705 707 710 713 717
738 729 722 722 720 723 717 720 714 707 694 685 678 669 656 645 647 653 657 654 653 657 661 661 664 670 676 679 681 683 687 688 690 689 691 695 697 696 699 702 704 707 710 714
733 724 724 723 721 717 718 708 710 709 708 704 673 684 662 650 647 646 651 652 650 650 652 657 660 663 667 671 673 673 678 681 682 683 686 689 692 692 694 698 700 703 708 711
736 729 721 717 712 708 708 701 704 704 706 699 682 674 652 644 647 644 643 640 638 642 649 649 650 652 657 660 662 665 669 672 673 675 679 683 687 687 691 694 697 701 706 710
727 714 712 708 705 708 705 708 700 697 696 697 681 671 652 644 638 632 626 628 630 633 636 639 642 646 646 649 652 654 658 663 666 669 674 677 681 682 687 690 696 700 706 709
728 710 701 700 709 706 711 707 711 708 693 689 677 666 654 623 621 624 622 624 625 628 632 635 637 637 636 639 643 647 651 656 660 665 669 674 677 681 685 690 692 696 704 707
743 731 721 715 714 711 707 715 714 718 694 688 667 659 644 629 622 625 623 622 624 632 633 632 632 630 628 630 636 643 647 650 657 661 667 671 675 680 684 687 688 692 697 702
745 735 725 715 705 712 700 710 711 707 708 719 684 640 636 626 627 625 625 634 634 637 635 633 628 628 628 629 632 638 640 645 653 658 665 670 675 677 681 685 689 693 696 701
735 733 721 710 709 704 701 689 713 692 700 703 672 655 629 623 622 623 629 633 636 637 632 628 629 631 631 628 630 634 637 644 652 659 665 669 673 678 682 687 689 693 697 701
729 731 717 715 718 709 695 694 698 703 691 699 673 645 612 605 618 621 621 628 637 636 629 623 628 632 629 623 627 632 638 645 653 660 664 669 674 679 684 687 690 694 699 702
729 739 725 708 685 695 696 695 703 708 684 674 683 657 605 594 591 610 627 634 638 637 628 619 625 629 621 622 627 633 638 646 654 660 665 671 676 680 684 687 691 695 699 703
747 733 731 704 706 695 701 696 698 704 715 693 684 669 612 605 614 624 633 639 641 641 632 620 620 628 619 622 628 633 641 647 653 660 667 672 677 681 684 688 692 696 700 702
746 737 735 721 701 734 731 708 687 694 718 680 661 676 641 617 621 627 634 636 641 640 630 623 620 628 626 622 628 635 641 648 655 661 667 673 677 681 684 688 693 696 699 701
742 737 724 709 698 696 689 685 681 679 674 673 656 676 679 656 637 628 635 642 640 636 629 627 625 629 628 631 628 634 642 650 656 661 667 673 678 681 684 688 692 696 698 701
735 733 720 707 691 683 682 675 675 673 669 660 659 654 645 648 641 639 639 640 638 635 633 631 627 628 634 635 631 636 644 651 656 662 668 674 676 680 685 690 693 695 699 701
742 733 724 712 692 688 682 669 663 663 661 663 652 644 637 638 638 638 637 637 636 636 636 632 629 629 634 639 639 639 645 651 657 662 668 671 675 680 687 691 694 696 698 702
742 731 723 711 702 712 673 669 671 668 665 677 673 651 647 645 640 641 635 634 634 633 634 632 627 628 632 640 641 641 646 652 657 661 666 670 674 680 685 690 693 695 699 702
739 742 733 724 716 696 688 689 691 695 681 672 670 661 653 651 648 642 635 632 631 632 633 630 628 627 632 639 642 641 646 651 655 660 665 669 672 678 682 687 692 696 700 704
732 742 738 716 712 705 699 701 700 698 686 684 685 684 681 676 674 638 635 628 625 626 628 630 628 628 633 637 640 640 645 649 653 658 663 667 671 677 683 688 692 696 700 704
718 736 731 716 713 693 702 704 699 700 686 685 682 679 675 677 665 647 649 643 636 635 633 630 628 630 629 635 638 638 645 648 652 657 662 667 674 680 685 688 692 696 700 703
725 714 709 709 705 694 693 686 701 684 681 686 682 679 677 669 666 660 654 648 643 637 629 624 621 626 629 635 638 637 644 648 652 657 662 669 677 682 685 690 694 697 700 703
709 707 712 711 694 679 679 681 686 688 685 679 678 669 664 666 664 660 653 644 639 633 625 620 617 623 630 634 635 637 644 647 651 656 662 671 679 683 687 691 695 698 700 702
696 692 698 698 680 676 670 675 681 682 678 673 668 665 665 662 659 653 648 639 631 624 619 616 619 624 629 632 632 636 644 647 651 657 665 672 679 684 688 692 695 696 698 701
696 699 694 684 676 673 670 672 674 672 666 662 657 656 653 656 649 643 635 630 624 617 611 612 617 621 626 629 629 636 643 646 652 659 666 671 679 682 687 693 696 697 700 701
695 690 692 697 682 672 667 672 671 665 663 657 652 648 643 643 641 636 629 626 624 620 614 612 616 620 622 622 628 636 641 646 653 660 665 668 674 677 683 691 696 698 701 703
Wind_Speed
11 14 16 19 20 23 24 28 35 31 27 31 30 35 37 31 27 30 27 26 23 20 20 26 19 15 19 19 18 20 22 19 17 18 17 17 17 18 18 19 19 20 20 22
17 20 19 20 20 23 26 27 32 31 34 28 28 35 33 32 28 27 30 22 23 21 21 18 19 20 19 20 20 22 21 18 19 17 17 16 13 16 17 17 18 19 20 20
19 22 21 23 21 24 25 25 28 31 28 28 33 30 32 31 30 29 30 29 26 23 23 22 19 18 20 21 22 23 21 20 20 17 13 12 11 12 15 18 18 19 19 20
16 17 12 15 22 22 27 23 24 27 25 22 32 21 31 31 30 26 28 29 29 28 20 19 21 20 22 23 25 22 23 22 19 16 16 18 16 15 16 18 17 18 19 19
19 23 22 19 20 20 25 23 25 27 26 28 33 22 21 25 29 29 29 27 26 21 25 26 24 21 27 29 26 25 23 22 20 17 20 19 19 17 16 17 20 16 18 20
21 17 22 22 18 19 17 25 28 27 22 23 31 28 23 22 25 28 30 28 26 23 22 21 21 27 25 23 27 22 20 21 18 19 19 19 19 17 17 18 18 19 18 18
21 22 12 17 17 19 20 20 15 18 18 20 24 28 23 14 15 10 16 18 18 14 13 14 17 15 17 19 19 21 19 19 19 20 18 20 18 15 17 20 20 21 20 18
11 16 17 8 16 19 15 18 11 18 15 20 26 28 27 28 18 9 3 6 4 7 12 12 11 12 11 13 17 19 21 20 18 18 18 20 20 20 20 22 19 18 18 18
11 10 13 20 10 19 25 10 21 26 21 14 15 32 28 35 27 23 16 9 7 2 6 8 7 7 10 12 14 20 21 18 17 18 20 21 23 21 21 18 19 17 15 16
17 19 16 11 11 18 21 17 11 11 18 19 16 22 23 15 27 16 15 14 7 5 7 4 3 4 10 12 13 16 17 18 20 22 21 22 20 19 19 19 16 16 14 14
18 15 18 12 6 15 16 15 12 17 12 10 14 13 18 24 21 19 14 13 4 3 5 2 5 4 10 10 15 17 19 22 22 22 22 21 21 20 20 19 18 16 14 14
16 7 14 21 13 17 14 17 1 8 14 15 15 15 25 16 12 24 15 9 5 7 9 7 9 3 7 11 16 19 21 23 23 23 22 21 21 22 20 18 17 15 14 13
8 6 11 17 6 8 4 15 8 9 12 17 10 6 14 21 19 14 13 9 3 9 10 10 10 2 2 12 17 21 21 22 22 22 23 23 22 20 19 17 15 13 13 12
10 14 16 16 17 6 9 17 12 9 5 15 17 10 16 11 19 13 5 4 4 10 10 10 10 4 3 13 18 20 21 22 23 23 23 22 20 19 17 15 14 14 13 13
9 11 17 20 20 19 16 13 16 17 17 18 21 14 19 25 19 11 10 11 11 12 8 9 9 6 4 8 19 20 21 22 23 23 22 20 18 17 17 16 15 14 14 13
6 11 14 19 20 19 16 18 16 18 20 23 23 22 19 17 20 17 14 15 12 9 9 9 8 6 6 5 7 20 22 22 22 22 20 20 19 17 15 15 15 14 13 12
10 7 7 13 14 11 14 13 19 18 18 20 22 20 20 17 15 13 13 14 12 9 9 8 7 4 12 9 7 20 22 22 21 20 20 19 18 18 16 15 15 15 14 14
6 13 11 12 13 9 8 12 14 16 12 7 14 21 18 20 16 19 17 15 15 9 7 9 7 3 18 15 13 17 22 21 21 20 19 18 17 18 18 18 16 15 13 12
10 4 4 4 6 14 18 14 10 6 15 20 19 18 19 21 21 19 20 18 12 11 8 7 10 1 19 17 21 20 22 21 20 19 19 18 17 16 15 15 14 14 12 10
5 5 3 6 5 5 3 4 7 10 15 5 4 7 13 13 6 3 17 15 2 1 5 7 10 6 19 18 20 22 21 21 19 20 18 16 16 15 14 15 15 12 12 10
4 3 6 11 8 8 7 7 5 4 3 8 15 17 15 9 15 22 19 15 13 10 11 13 13 7 16 19 20 21 21 19 20 20 18 16 16 14 14 13 13 12 11 11
4 4 2 3 4 3 8 13 5 10 20 21 21 18 16 17 15 20 18 16 16 15 15 14 12 11 18 22 19 21 21 21 21 20 18 19 19 15 14 13 14 14 13 12
4 3 3 3 6 17 16 9 8 16 16 18 17 19 15 16 16 17 17 16 15 17 12 16 5 16 18 24 24 22 22 22 22 20 18 21 18 15 15 13 14 13 11 11
8 12 6 10 9 20 21 14 13 16 18 18 20 19 18 17 17 17 17 15 15 14 12 15 6 12 15 24 23 24 24 24 22 19 17 21 17 17 15 13 11 11 11 10
14 10 9 15 15 22 12 18 12 19 14 15 14 16 16 16 18 18 17 14 14 12 13 7 10 14 20 24 25 25 25 24 22 20 18 17 21 17 18 12 7 7 7 6
4 8 4 6 18 17 21 15 18 9 16 16 17 17 18 17 17 18 14 13 13 14 17 5 11 25 25 28 26 25 27 25 23 21 19 18 18 16 19 14 11 11 9 7
Wind_Direction
279 268 256 261 271 267 269 270 274 265 255 249 255 233 244 235 241 254 237 241 238 235 245 243 232 224 232 227 237 251 260 252 244 239 240 237 237 230 225 222 210 201 199 201
277 261 259 262 267 268 272 274 268 267 269 276 261 253 245 239 231 238 250 241 237 238 237 238 239 238 238 242 236 244 241 233 229 230 239 251 241 228 221 211 199 197 195 196
281 289 290 281 267 250 253 264 269 270 268 259 263 262 254 245 236 228 242 248 246 238 240 241 244 247 247 238 235 231 229 227 222 223 231 233 242 230 201 199 192 194 193 193
299 291 274 283 269 258 266 263 270 270 269 256 246 251 243 244 244 230 235 241 241 242 251 251 251 248 245 249 248 229 224 222 219 214 226 217 220 208 207 200 191 183 189 186
289 292 289 277 267 263 268 271 261 262 254 259 253 250 246 241 239 236 238 240 233 235 240 244 246 246 246 242 236 229 230 224 217 215 212 211 219 212 198 192 158 175 181 183
288 290 282 267 274 275 286 282 262 251 246 243 243 248 239 230 239 236 223 226 231 233 238 244 248 249 250 253 247 233 214 216 217 209 205 210 203 227 185 169 166 169 166 177
318 292 317 249 254 264 256 260 261 245 230 240 251 238 245 221 234 285 244 233 227 234 242 244 239 239 234 234 239 231 208 207 203 199 195 199 202 193 170 162 175 163 165 176
330 309 355 351 282 271 234 294 243 249 222 235 232 234 228 248 250 134 299 297 150 204 239 242 252 248 242 236 227 218 197 195 188 184 186 186 178 179 173 184 167 172 169 172
319 308 285 289 271 271 265 213 241 265 270 296 287 225 229 226 236 245 238 193 163 243 260 261 265 266 254 252 212 201 194 181 176 170 171 168 174 168 170 151 157 153 157 146
298 296 296 319 303 254 263 271 270 286 264 259 268 270 212 190 203 196 189 186 151 227 275 284 306 285 262 228 192 183 174 166 167 162 161 164 162 161 148 153 158 153 149 158
296 300 292 235 241 284 245 257 242 251 267 292 264 253 238 199 196 199 194 118 122 327 324 2 23 313 252 188 166 165 160 160 158 160 161 155 157 153 153 153 148 150 155 161
318 288 290 285 252 236 252 253 234 250 256 247 254 297 309 135 135 185 118 100 73 340 352 2 61 333 222 170 152 156 157 156 161 160 153 154 152 152 151 149 151 154 164 172
339 291 305 292 313 148 228 296 218 252 274 268 279 272 289 119 121 125 128 111 11 343 348 4 66 47 215 158 156 154 156 158 155 154 153 151 152 151 149 150 152 163 166 168
310 274 261 277 291 152 266 294 285 280 257 280 260 211 259 159 140 142 129 41 346 319 324 14 14 68 228 160 155 152 159 152 156 155 153 152 152 151 148 151 159 163 168 164
236 265 270 273 277 275 268 263 275 274 260 269 282 318 296 310 321 355 4 318 299 305 337 3 350 111 199 306 151 156 150 156 156 153 151 151 150 149 151 155 159 164 166 171
264 274 285 284 283 276 270 256 254 261 269 269 269 269 262 244 274 301 303 287 287 299 326 325 338 135 148 287 166 153 155 155 156 153 149 154 151 151 145 160 161 164 168 173
283 272 292 279 304 298 272 283 245 242 242 252 276 281 290 276 271 283 292 298 281 285 291 303 320 309 148 208 237 161 156 158 154 155 155 153 154 139 155 159 166 166 169 157
253 268 274 271 294 262 268 335 353 323 301 221 291 290 301 297 301 292 291 279 272 284 289 293 299 317 151 181 171 171 158 157 161 155 155 156 163 158 162 166 174 168 160 170
215 240 272 265 255 275 284 304 302 338 291 306 303 285 286 295 304 296 262 267 275 268 275 279 287 313 156 169 180 180 163 164 162 158 159 164 160 159 159 155 174 156 161 171
194 211 232 260 268 271 80 61 328 337 284 66 317 293 287 303 293 270 9 338 231 304 322 301 297 338 161 167 198 172 166 168 166 162 165 165 159 160 149 159 162 166 164 167
287 177 220 246 258 268 104 306 266 259 340 294 312 302 296 276 262 315 315 314 320 304 292 280 264 252 178 171 205 173 167 173 168 164 163 156 133 143 158 148 151 151 161 159
225 290 235 250 266 303 201 313 220 313 309 303 296 289 277 272 273 282 292 292 291 292 280 267 243 164 174 177 209 171 170 172 166 165 162 132 142 152 152 146 146 154 155 152
282 295 276 218 264 310 289 344 298 306 280 289 283 282 281 285 272 267 275 279 275 273 273 262 227 155 173 180 205 168 172 172 166 161 155 141 149 155 146 153 153 154 166 159
300 298 258 293 269 307 333 334 312 301 291 284 269 270 264 268 264 257 260 258 261 258 252 236 192 159 179 182 196 168 174 175 164 157 155 145 152 150 146 151 169 165 166 173
280 314 279 285 306 322 314 316 310 298 295 288 276 261 261 255 253 249 253 259 269 264 253 170 192 168 181 192 178 165 177 171 158 156 158 157 145 164 144 132 156 175 141 178
292 285 300 285 299 314 318 353 322 325 326 300 273 265 251 249 253 261 269 248 255 260 270 219 184 183 173 187 168 169 176 164 159 160 162 174 154 165 144 146 120 118 136 150